Notices

What's New in latest Release from April 7th, 2021:

- Updated Glossary, including Speed of Maximum Gust, and Total Hourly Precipitation

- Updated national and regional climate services offices contacts and prices information

- Addition of station inventory lists for 1981-2010, 1971-2000, and 1961-1990 Normals.

If you haven't already, please take our survey and provide feedback about our website: https://eccc.sondage-survey.ca/f/LanguageSelection.aspx?s=442ca660-fcf1-47c0-95a9-59707d6fd709

Hourly Data Report for April 18, 2016

MIRAMICHI RCS
NEW BRUNSWICK

47°00'34.000" N
65°27'54.000" W
33.00 m
8100989
71744
ACQ

Download Data

Hourly Data (April 2016)
Hourly Data Report for April 18, 2016
TIME
LST
Temp Definition
°C
Dew Point Definition
°C
Rel Hum Definition
%
Precip. Amount Definition
mm

Wind Dir Definition
10's deg

Wind Spd Definition
km/h
Visibility Definition
km
Stn Press Definition
kPa
Hmdx Definition


Wind Chill Definition


Weather Definition


00:00 11.0 -2.1 40 0.0 31 4   101.74     LegendNANA
01:00 10.2 -3.8 37 0.0 33 9   101.75     LegendNANA
02:00 9.7 -4.3 37 0.0 35 10   101.80     LegendNANA
03:00 8.8 -5.0 37 0.0 2 6   101.87     LegendNANA
04:00 7.9 -5.2 39 0.0 3 8   101.94     LegendNANA
05:00 5.3 -2.9 55 0.0 7 9   102.02     LegendNANA
06:00 4.9 -3.9 53 0.0 5 8   102.10     LegendNANA
07:00 4.9 -4.0 53 0.0 6 11   102.17     LegendNANA
08:00 5.0 -4.6 50 0.0 6 16   102.22     LegendNANA
09:00 4.6 -4.9 50 0.0 7 22   102.26     LegendNANA
10:00 4.9 -5.4 47 0.0 7 24   102.28     LegendNANA
11:00 5.6 -4.7 47 0.0 7 20   102.26     LegendNANA
12:00 6.0 -4.0 48 0.0 7 18   102.20     LegendNANA
13:00 6.8 -4.4 45 0.0 8 13   102.11     LegendNANA
14:00 7.2 -3.3 47 0.0 7 16   102.07     LegendNANA
15:00 7.0 -3.0 49 0.0 6 20   102.00     LegendNANA
16:00 6.4 -2.2 54 0.0 6 18   101.94     LegendNANA
17:00 4.7 -2.9 58 0.0 5 20   101.92     LegendNANA
18:00 3.7 -2.5 64 0.0 5 17   101.91     LegendNANA
19:00 1.8 -3.9 66 0.0 9 19   101.93     LegendNANA
20:00 -0.4 -5.3 69 0.0 8 13   101.97   -5 LegendNANA
21:00 -1.5 -5.9 72 0.0 8 5   101.98   -3 LegendNANA
22:00 -1.8 -6.1 72 0.0 8 6   101.92   -4 LegendNANA
23:00 -1.8 -5.3 77 0.0 1 2   101.85   -3 LegendNANA

Notes on Data Quality.

Legend

  • E = Estimated
  • M = Missing
  • NA = Not Available*
  • [empty] = Indicates an unobserved value
Date modified: